Orbital Elements at Epoch 2459200.5 (2020-Dec-17.0) TDB
Reference: JPL 37 (heliocentric ecliptic J2000)
Element | Value | Uncertainty (1-sigma) | Units |
e | .1674783418078346 | 2.5861e-08 | |
a | 2.369351550920036 | 7.0403e-09 | au |
q | 1.972536482012127 | 6.2093e-08 | au |
i | 2.329996903480705 | 2.899e-06 | deg |
node | 273.4476394723182 | 8.9452e-05 | deg |
peri | 353.50327169 | 9.0097e-05 | deg |
M | 231.4288304829503 | 1.1429e-05 | deg |
tp | 2459676.255454299645 (2022-Apr-06.75545430) | 4.2839e-05 | TDB |
period | 1332.117956080038 3.65 | 5.9374e-06 1.626e-08 | d yr |
n | .2702463384393942 | 1.2045e-09 | deg/d |
Q | 2.766166619827944 | 8.2194e-09 | au |
|
| | Orbit Determination Parameters
Additional Information
|